EW9140 Weather Reports


time (UTC)temp
C
wind
direction
speed
KPH
gust
KPH
rain 1hr
cm
rain 24hr
cm
rain mn
cm
humidity
%
barometer
mb
20260507180008 12 141 0.0 4.8 0.00 0.18 0.15 79 1009.9
20260507174503 12 96 0.0 0.0 0.00 0.18 0.15 81 1010.0
20260507173004 12 96 0.0 0.0 0.00 0.18 0.15 82 1010.3
20260507171604 12 139 0.0 0.0 0.00 0.18 0.15 82 1010.3
20260507170104 12 17 0.0 3.2 0.00 0.18 0.15 80 1010.4
20260507164558 12 75 0.0 3.2 0.00 0.20 0.15 78 1010.6
20260507163055 12 110 0.0 3.2 0.00 0.20 0.15 79 1010.7
20260507154545 13 76 0.0 4.8 0.00 0.20 0.15 78 1010.7
20260507153043 13 57 0.0 1.6 0.00 0.20 0.15 80 1010.8
20260507151542 13 121 0.0 0.0 0.00 0.20 0.15 83 1010.7
20260507150043 13 122 0.0 0.0 0.00 0.20 0.15 84 1010.7
20260507144541 13 122 0.0 1.6 0.00 0.28 0.15 84 1010.7
20260507143054 13 122 0.0 1.6 0.00 0.28 0.15 83 1010.4
20260507141550 13 52 0.0 1.6 0.00 0.28 0.15 85 1010.6
20260507140039 13 94 0.0 0.0 0.00 0.28 0.15 87 1010.7
20260507134538 13 115 0.0 1.6 0.00 0.30 0.15 88 1010.7
20260507133106 13 133 0.0 1.6 0.00 0.30 0.15 89 1010.7
20260507131543 13 92 0.0 0.0 0.00 0.30 0.15 91 1010.0
20260507130041 13 81 0.0 0.0 0.00 0.30 0.15 92 1010.0
20260507124535 13 81 0.0 0.0 0.00 0.30 0.15 92 1010.6
20260507123039 13 81 0.0 0.0 0.00 0.30 0.15 93 1010.4
20260507121534 13 86 0.0 0.0 0.00 0.30 0.15 93 1010.0
20260507120035 13 86 0.0 0.0 0.00 0.30 0.15 94 1010.2
20260507114534 13 86 0.0 0.0 0.00 0.30 0.15 94 1010.4
20260507113035 13 86 0.0 0.0 0.00 0.30 0.15 94 1010.3
20260507111528 13 86 0.0 0.0 0.00 0.30 0.15 94 1010.0
20260507110037 13 86 0.0 0.0 0.00 0.30 0.15 94 1010.0
20260507104529 13 86 0.0 0.0 0.00 0.30 0.15 93 1009.7
20260507103029 13 86 0.0 1.6 0.05 0.30 0.15 93 1009.7
20260507101532 13 257 0.0 1.6 0.08 0.30 0.15 93 1009.5
20260507100022 13 85 0.0 0.0 0.10 0.30 0.15 93 1009.3
20260507094517 14 66 0.0 1.6 0.13 0.30 0.15 92 1009.3
20260507093013 15 41 0.0 3.2 0.08 0.25 0.10 90 1009.3
20260507091511 17 44 0.0 4.8 0.05 0.23 0.08 89 1009.0
20260507090010 18 255 0.0 0.0 0.05 0.20 0.05 93 1008.6
20260507084506 18 230 0.0 0.0 0.03 0.18 0.03 93 1008.6
20260507083005 18 230 0.0 0.0 0.03 0.18 0.03 93 1008.5
20260507081504 18 316 0.0 0.0 0.00 0.15 0.00 92 1008.2
20260507080003 18 316 0.0 0.0 0.00 0.15 0.00 92 1007.9
20260507074501 18 316 0.0 0.0 0.00 0.15 0.00 92 1007.4
20260507073108 19 191 0.0 0.0 0.00 0.15 0.00 91 1007.7
20260507071557 19 232 0.0 0.0 0.00 0.15 0.00 90 1007.7
20260507070103 19 276 0.0 1.6 0.00 0.15 0.00 89 1008.3
20260507064558 19 281 0.0 3.2 0.00 0.15 0.00 88 1007.9
20260507063054 20 275 0.0 1.6 0.00 0.15 0.00 86 1007.9
20260507061553 20 251 0.0 0.0 0.00 0.15 0.00 86 1007.7
20260507060054 20 291 0.0 1.6 0.00 0.15 0.00 85 1007.7
20260507054551 20 335 0.0 0.0 0.00 0.15 0.00 85 1007.9
20260507053048 20 297 0.0 1.6 0.00 0.15 0.00 85 1008.0
20260507051547 20 297 0.0 1.6 0.00 0.15 0.00 85 1008.2
20260507050043 20 5 0.0 3.2 0.00 0.15 0.00 85 1008.6
20260507044556 20 321 0.0 1.6 0.00 0.15 0.00 84 1009.1
20260507043042 20 267 0.0 1.6 0.00 0.15 0.00 84 1009.4
20260507041545 20 263 0.0 1.6 0.00 0.15 0.00 84 1009.1
20260507040042 20 262 0.0 3.2 0.00 0.15 0.00 84 1009.1
20260507034542 20 318 0.0 1.6 0.00 0.15 0.15 85 1009.0
20260507033047 20 88 0.0 1.6 0.00 0.15 0.15 85 1008.9
20260507031551 19 271 0.0 3.2 0.00 0.15 0.15 86 1008.5
20260507030042 19 44 0.0 0.0 0.00 0.15 0.15 87 1008.7
20260507024543 19 321 0.0 0.0 0.00 0.15 0.15 87 1008.4
20260507023034 19 321 0.0 0.0 0.00 0.15 0.15 87 1008.7
20260507021537 19 321 0.0 0.0 0.00 0.15 0.15 88 1008.7
20260507020038 18 320 0.0 0.0 0.00 0.15 0.15 88 1009.2
20260507014542 18 321 0.0 0.0 0.00 0.15 0.15 88 1009.0
20260507013039 18 321 0.0 0.0 0.00 0.15 0.15 87 1009.0
20260507011536 19 321 0.0 0.0 0.00 0.15 0.15 86 1008.8
20260507010039 19 321 0.0 0.0 0.00 0.15 0.15 85 1008.9
20260507004532 20 321 0.0 0.0 0.00 0.15 0.15 84 1008.7
20260507003030 20 321 0.0 0.0 0.00 0.15 0.15 83 1008.8
20260507001534 20 321 0.0 0.0 0.00 0.15 0.15 82 1008.9
20260507000028 20 293 0.0 0.0 0.00 0.15 0.15 81 1009.1
20260506234528 21 264 0.0 0.0 0.00 0.15 0.15 80 1008.7
20260506233028 21 264 0.0 0.0 0.00 0.15 0.15 79 1008.5
20260506231527 21 257 0.0 6.4 0.00 0.15 0.15 77 1008.7
20260506230026 21 129 0.0 1.6 0.00 0.15 0.15 77 1008.6
20260506224527 21 20 0.0 1.6 0.00 0.15 0.15 76 1008.6
20260506223025 21 326 0.0 0.0 0.00 0.15 0.15 75 1008.6
20260506221525 22 302 0.0 1.6 0.00 0.15 0.15 75 1008.7
20260506220024 22 271 0.0 9.7 0.00 0.15 0.15 73 1008.5
20260506214525 22 320 0.0 4.8 0.00 0.15 0.15 72 1008.6
20260506213023 22 23 0.0 8.0 0.00 0.15 0.15 72 1008.7
20260506211524 22 342 0.0 1.6 0.00 0.15 0.15 74 1009.1
20260506210021 21 266 0.0 6.4 0.00 0.15 0.15 75 1008.7
20260506204517 21 107 0.0 1.6 0.00 0.15 0.15 76 1008.7
20260506203017 21 118 0.0 4.8 0.00 0.15 0.15 77 1008.8
20260506201519 21 264 0.0 4.8 0.00 0.15 0.15 78 1008.6
20260506200013 21 293 0.0 3.2 0.00 0.15 0.15 79 1008.5
20260506194513 21 36 0.0 4.8 0.00 0.15 0.15 79 1007.9
20260506193010 20 304 0.0 4.8 0.00 0.15 0.15 79 1008.0
20260506191507 20 301 0.0 1.6 0.00 0.15 0.15 81 1008.5
20260506190005 20 344 0.0 4.8 0.03 0.15 0.15 82 1008.6
20260506184502 19 159 0.0 4.8 0.03 0.15 0.15 86 1008.9
20260506183059 18 302 0.0 3.2 0.03 0.15 0.15 86 1009.6
20260506181559 18 297 0.0 3.2 0.03 0.15 0.15 86 1010.2